Tracking 22124 objects as of 23-Jan-2021
HD Live streaming from Space Station
objects crossing your sky now

FLOCK 4V 11

Track FLOCK 4V 11 now!
10-day predictions
FLOCK 4V 11 is classified as:


NORAD ID: 46285
Int'l Code: 2020-061P
Perigee: 540.6 km
Apogee: 545.0 km
Inclination: 97.5 °
Period: 95.4 minutes
Semi major axis: 6913 km
RCS: Unknown
Launch date: September 3, 2020
Source: United States (US)
Launch site: FRENCH GUIANA (FRGUI)
aabbcc
Your satellite tracking list
Your tracking list is empty




NASA's NSSDC Master Catalog

Two Line Element Set (TLE):
1 46285U 20061P   21022.82459958  .00001504  00000-0  95948-4 0  9990
2 46285  97.5048  99.1898 0003175 193.9706 166.1436 15.10182696 21363
Source of the keplerian elements: AFSPC